[[{"header":{"parameterUnit":"m.s-1","parameterCategory":1,"la1":30.2991,"la2":30.254,"lo1":-89.0895,"lo2":-89.0444,"dy":0.0017,"dx":0.0017,"nx":28,"ny":28,"refTime":"2024-12-19T03:00:00:Z","depth":0,"parameterNumber":2,"parameterNumberName":"U-component_of_WINDS"},"data":[0,0,0,0,0,0,0,0,0,0,0,0,0,0,0,0,0,0,0,0,0,0,0,0,0,0,0,0,0,0,0,0,0,0,0,0,0,0,0,0,0,0,0,0,0,0,0,0,0,0,0,0,0,0,0,0,0,0,1.5536,1.5536,0,1.5483,1.5482,1.5481,1.5425,1.5424,1.5423,1.5422,1.5366,1.5365,1.5364,0,0,0,0,0,0,0,0,0,0,0,0,0,1.5589,1.5588,1.5536,1.5536,1.5535,1.5483,1.5482,1.5481,1.5425,1.5424,1.5423,1.5422,1.5366,1.5365,1.5364,0,0,0,0,0,0,0,0,0,0,0,0,0,1.5554,1.5588,1.5536,1.55,1.5497,1.5483,1.5482,1.5481,1.5425,1.5424,1.5423,1.5422,1.5367,1.5365,1.5364,1.5381,0,0,1.5361,1.536,0,0,0,0,0,0,0,0,1.5556,1.5552,1.5506,1.5503,1.5499,1.5459,1.548,1.5448,1.5425,1.5452,1.5422,1.5421,1.5398,1.5394,1.5387,1.5378,1.5376,1.5361,1.536,1.536,1.5359,0,0,0,0,0,0,0,1.5558,1.5554,1.5515,1.5506,1.5501,1.5487,1.5481,1.5473,1.5432,1.545,1.5446,1.544,1.5395,1.5388,1.5385,1.5375,1.5361,1.536,1.5359,1.5359,1.5379,1.5381,0,0,0,0,0,0,1.5566,1.5556,1.5517,1.5513,1.5525,1.5487,1.548,1.5473,1.5432,1.5425,1.5441,1.5438,1.539,1.5386,1.5383,1.54,1.536,1.5358,1.5358,1.5378,1.538,1.5381,0,0,0,0,0,0,1.5568,1.5563,1.5519,1.5534,1.5527,1.5487,1.548,1.5473,1.5465,1.5426,1.5418,1.5441,1.5389,1.5384,1.5382,1.5398,1.5358,1.5357,1.5377,1.5379,1.538,1.5436,0,0,0,0,0,0,1.5569,1.5564,1.557,1.5534,1.5526,1.552,1.5481,1.5472,1.5463,1.5458,1.5423,1.5417,1.5388,1.5384,1.5381,1.5395,1.5356,1.5375,1.5378,1.538,1.5432,1.5439,1.5445,0,0,0,0,0,1.5571,1.5587,1.5571,1.5566,1.5533,1.5521,1.5516,1.5483,1.5465,1.547,1.5446,1.5418,1.5397,1.5385,1.5381,1.5395,1.5374,1.5377,1.538,1.543,1.5438,1.5445,0,0,0,0,0,0,1.5625,1.5582,1.5563,1.5568,1.5549,1.5511,1.5517,1.5493,1.5478,1.5474,1.5433,1.5426,1.5429,1.5411,1.5399,1.5409,1.5381,1.5383,1.5421,1.5428,1.5435,1.5439,1.5355,0,0,0,0,0,1.5638,1.5632,1.5594,1.5602,1.5593,1.5557,1.555,1.5527,1.5505,1.5497,1.5471,1.5451,1.544,1.5433,1.542,1.543,1.5422,1.5437,1.5444,1.5449,1.5452,1.5456,1.5463,1.539,1.539,1.539,0,0,1.5663,1.5639,1.5637,1.5612,1.5594,1.5589,1.5551,1.5546,1.5542,1.5495,1.5493,1.5474,1.5448,1.5452,1.5453,1.5438,1.547,1.5453,1.5458,1.5457,1.546,1.5467,1.5473,1.5392,1.5392,1.5391,0,0,1.5707,1.5688,1.5693,1.5676,1.565,1.5627,1.5628,1.5595,1.558,1.5577,1.5543,1.5537,1.5518,1.5502,1.5491,1.553,1.5504,1.5527,1.5561,1.5566,1.5571,1.5576,1.5591,1.5597,1.553,1.553,1.553,0,1.5742,1.5733,1.5698,1.5696,1.5687,1.5646,1.5651,1.5636,1.5607,1.5601,1.5585,1.5562,1.5541,1.5542,1.5552,1.5544,1.5544,1.5531,1.5574,1.5578,1.5582,1.5596,1.5601,1.5533,1.5532,1.5532,1.5532,0,1.5777,1.5772,1.5779,1.5753,1.5744,1.5745,1.5711,1.5706,1.5684,1.5662,1.566,1.5634,1.5616,1.5615,1.5592,1.5612,1.5604,1.5581,1.5552,1.5593,1.5605,1.561,1.5537,1.5536,1.5535,1.5534,0,0,1.5853,1.5809,1.5812,1.5801,1.577,1.5764,1.5765,1.5748,1.5745,1.5726,1.5726,1.5711,1.5691,1.5679,1.5654,1.5659,1.5693,1.5636,1.5634,1.5648,1.5714,1.5732,1.5738,1.5676,1.5676,1.5677,1.5716,0,1.5892,1.589,1.5859,1.5866,1.5861,1.5822,1.5822,1.5803,1.5783,1.5776,1.5753,1.5744,1.5717,1.571,1.5712,1.5688,1.5706,1.5685,1.5675,1.5675,1.5683,1.5744,1.5763,1.5801,1.5721,1.5722,1.5722,0,1.5936,1.5922,1.5929,1.5899,1.5895,1.5896,1.5879,1.5872,1.585,1.5835,1.5823,1.5795,1.5793,1.5767,1.5763,1.575,1.5744,1.5732,1.5732,1.573,1.5701,1.5744,1.5812,1.5818,1.5729,1.5729,1.5728,0,1.5992,1.5974,1.5976,1.5967,1.5932,1.5934,1.5919,1.5896,1.5888,1.5873,1.5868,1.5853,1.5844,1.5833,1.5803,1.5786,1.5804,1.5774,1.5791,1.5792,1.5797,1.5797,1.5865,1.5793,1.5793,1.5792,1.5792,0,1.6039,1.6044,1.6001,1.6002,1.6007,1.5972,1.5979,1.596,1.594,1.5937,1.5903,1.5901,1.586,1.5854,1.583,1.5832,1.5828,1.5816,1.581,1.5819,1.5821,1.5815,1.5812,1.5794,1.5794,1.5793,1.5793,0,1.6101,1.6072,1.6072,1.6039,1.6031,1.6037,1.6009,1.6009,1.5987,1.5983,1.5981,1.5946,1.5937,1.5905,1.5888,1.5872,1.5881,1.5869,1.5889,1.5885,1.5905,1.5904,1.5971,1.5979,1.5901,1.5902,1.5903,0,1.6133,1.6137,1.6105,1.6101,1.6088,1.6082,1.6075,1.6041,1.6034,1.601,1.6013,1.6001,1.599,1.5977,1.595,1.5937,1.5924,1.5949,1.5921,1.5932,1.5925,1.5925,1.5926,1.5955,1.5956,1.5956,1.5957,0,1.6194,1.6179,1.617,1.6156,1.6149,1.6136,1.6121,1.6119,1.6081,1.6076,1.6066,1.6058,1.6041,1.603,1.6012,1.5997,1.5971,1.5966,1.5969,1.598,1.5992,1.5986,1.5906,1.5964,1.5964,1.5963,1.5963,1.5962,1.6242,1.6244,1.6223,1.6214,1.6199,1.6187,1.6185,1.6164,1.6155,1.6139,1.612,1.6113,1.6092,1.6066,1.6053,1.6047,1.6032,1.6037,1.6039,1.6041,1.6046,1.5992,1.6043,1.6043,1.6043,1.6043,1.6042,0,1.6301,1.6286,1.6278,1.6259,1.6252,1.6229,1.6212,1.6208,1.6203,1.6185,1.6175,1.6165,1.6154,1.6127,1.6114,1.6114,1.6102,1.6112,1.6112,1.6109,1.6059,1.6057,1.6122,1.6122,1.6122,1.6122,1.6122,1.6122,1.6331,1.6334,1.6317,1.6312,1.6297,1.629,1.6283,1.6271,1.6257,1.6247,1.6239,1.6221,1.62,1.6185,1.6175,1.6167,1.6164,1.6178,1.6167,1.612,1.6112,1.6105,1.6104,1.6177,1.6178,1.6217,1.6218,1.6218]},{"header":{"parameterUnit":"m.s-1","parameterCategory":1,"la1":30.2991,"la2":30.254,"lo1":-89.0895,"lo2":-89.0444,"dy":0.0017,"dx":0.0017,"nx":28,"ny":28,"refTime":"2024-12-19T03:00:00:Z","depth":0,"parameterNumber":3,"parameterNumberName":"V-component_of_WINDS"},"data":[0,0,0,0,0,0,0,0,0,0,0,0,0,0,0,0,0,0,0,0,0,0,0,0,0,0,0,0,0,0,0,0,0,0,0,0,0,0,0,0,0,0,0,0,0,0,0,0,0,0,0,0,0,0,0,0,0,0,-2.9382,-2.9382,0,-2.9472,-2.9473,-2.9474,-2.9493,-2.9493,-2.9492,-2.9491,-2.9582,-2.9584,-2.9587,0,0,0,0,0,0,0,0,0,0,0,0,0,-2.9225,-2.9227,-2.9381,-2.9383,-2.9384,-2.9472,-2.9473,-2.9474,-2.9493,-2.9493,-2.9492,-2.9491,-2.9581,-2.9584,-2.9588,0,0,0,0,0,0,0,0,0,0,0,0,0,-2.9302,-2.9228,-2.9381,-2.9404,-2.9407,-2.9471,-2.9473,-2.9474,-2.9494,-2.9493,-2.9492,-2.9491,-2.9579,-2.9584,-2.9588,-2.9635,0,0,-2.9602,-2.9604,0,0,0,0,0,0,0,0,-2.9297,-2.9307,-2.94,-2.9403,-2.9406,-2.947,-2.9451,-2.9528,-2.9494,-2.9461,-2.9491,-2.949,-2.9545,-2.9552,-2.9571,-2.964,-2.9644,-2.9602,-2.9605,-2.9607,-2.9608,0,0,0,0,0,0,0,-2.9292,-2.9303,-2.9417,-2.9401,-2.9405,-2.9409,-2.9419,-2.9465,-2.9507,-2.9464,-2.9465,-2.9476,-2.9547,-2.9567,-2.9574,-2.9645,-2.9602,-2.9606,-2.9609,-2.9611,-2.9757,-2.9759,0,0,0,0,0,0,-2.9283,-2.9299,-2.9414,-2.942,-2.9348,-2.9413,-2.9424,-2.9451,-2.9507,-2.9514,-2.9476,-2.9476,-2.956,-2.9568,-2.9577,-2.9637,-2.9607,-2.9611,-2.9614,-2.9756,-2.9758,-2.9759,0,0,0,0,0,0,-2.9279,-2.9293,-2.9411,-2.936,-2.9375,-2.9417,-2.9446,-2.9453,-2.9473,-2.9517,-2.9524,-2.949,-2.9559,-2.9571,-2.9621,-2.964,-2.9613,-2.9617,-2.9755,-2.9757,-2.9758,-2.9756,0,0,0,0,0,0,-2.9275,-2.9291,-2.931,-2.936,-2.9378,-2.9454,-2.9448,-2.9455,-2.9481,-2.9482,-2.9531,-2.9538,-2.9559,-2.9614,-2.9626,-2.9646,-2.9621,-2.9753,-2.9756,-2.9758,-2.9754,-2.9757,-2.976,0,0,0,0,0,-2.9269,-2.9305,-2.9311,-2.9325,-2.9402,-2.9455,-2.9465,-2.9489,-2.9483,-2.9502,-2.953,-2.9536,-2.9636,-2.9619,-2.9632,-2.9654,-2.9752,-2.9755,-2.9758,-2.9753,-2.9757,-2.976,0,0,0,0,0,0,-2.9255,-2.9312,-2.9319,-2.9372,-2.9409,-2.9458,-2.9482,-2.9492,-2.953,-2.9529,-2.9558,-2.9569,-2.9618,-2.9641,-2.9621,-2.9703,-2.9694,-2.9699,-2.9686,-2.969,-2.9693,-2.9686,-2.9625,0,0,0,0,0,-2.9258,-2.9297,-2.9344,-2.9387,-2.9405,-2.944,-2.9464,-2.948,-2.9519,-2.9534,-2.9566,-2.9602,-2.9642,-2.9667,-2.9706,-2.9758,-2.9769,-2.9779,-2.9782,-2.9784,-2.9788,-2.9818,-2.9824,-2.9768,-2.9768,-2.9768,0,0,-2.9265,-2.9301,-2.9323,-2.9385,-2.9415,-2.9454,-2.9453,-2.9494,-2.9523,-2.954,-2.959,-2.9615,-2.9657,-2.9709,-2.9733,-2.973,-2.9806,-2.9788,-2.9789,-2.9792,-2.9822,-2.9827,-2.9832,-2.977,-2.9769,-2.9769,0,0,-2.9297,-2.9328,-2.9367,-2.9398,-2.9444,-2.9468,-2.9477,-2.9525,-2.9543,-2.9594,-2.9607,-2.9642,-2.971,-2.974,-2.9764,-2.9809,-2.9817,-2.9821,-2.9835,-2.9864,-2.9868,-2.9872,-2.9889,-2.9894,-2.9825,-2.9825,-2.9825,0,-2.9299,-2.9359,-2.9386,-2.9427,-2.9454,-2.9472,-2.9512,-2.954,-2.9596,-2.9614,-2.9609,-2.9695,-2.9725,-2.9785,-2.9796,-2.9815,-2.9827,-2.9815,-2.9866,-2.987,-2.9874,-2.989,-2.9896,-2.9825,-2.9825,-2.9825,-2.9825,0,-2.936,-2.9402,-2.9428,-2.9483,-2.9512,-2.9552,-2.9585,-2.9612,-2.9626,-2.965,-2.9702,-2.9739,-2.9786,-2.9801,-2.9814,-2.9863,-2.986,-2.986,-2.9851,-2.9879,-2.9895,-2.9901,-2.9825,-2.9825,-2.9825,-2.9825,0,0,-2.9385,-2.9455,-2.9464,-2.949,-2.9543,-2.9575,-2.9616,-2.9663,-2.9686,-2.9724,-2.9759,-2.9817,-2.9818,-2.9845,-2.9862,-2.9888,-2.9922,-2.9885,-2.9887,-2.9891,-2.9978,-2.9978,-2.9984,-2.9928,-2.9929,-2.993,-2.9975,0,-2.9424,-2.9499,-2.9525,-2.9587,-2.9625,-2.9644,-2.968,-2.9716,-2.974,-2.9776,-2.9802,-2.9843,-2.9841,-2.9858,-2.9884,-2.9912,-2.994,-2.991,-2.9961,-2.9962,-2.9949,-2.9993,-2.9992,-3.0032,-2.9981,-2.9982,-2.9983,0,-2.9479,-2.9519,-2.9585,-2.9634,-2.9651,-2.9683,-2.9729,-2.9764,-2.9805,-2.9821,-2.9852,-2.9868,-2.9911,-2.99,-2.9961,-2.994,-2.9962,-2.998,-2.9982,-2.9987,-2.9974,-2.9999,-3.0046,-3.0052,-2.9993,-2.9992,-2.9991,0,-2.9491,-2.9562,-2.9611,-2.9632,-2.969,-2.9712,-2.9737,-2.9778,-2.9805,-2.9845,-2.9862,-2.9906,-2.993,-2.9964,-2.9991,-2.9981,-3.0049,-3.0041,-3.0064,-3.0063,-3.0077,-3.0076,-3.0128,-3.0091,-3.0091,-3.0091,-3.0091,0,-2.9531,-2.9571,-2.9617,-2.9647,-2.9692,-2.9722,-2.9765,-2.9791,-2.9828,-2.9863,-2.9881,-2.9914,-2.9948,-2.9985,-3.0006,-3.0053,-3.0064,-3.0078,-3.0083,-3.0076,-3.0074,-3.0091,-3.0089,-3.0093,-3.0092,-3.0092,-3.0092,0,-2.9552,-2.9584,-2.9639,-2.969,-2.9704,-2.9735,-2.9779,-2.9808,-2.9834,-2.9878,-2.989,-2.993,-2.9975,-3.0005,-3.0062,-3.0076,-3.0128,-3.0132,-3.0114,-3.0116,-3.0138,-3.0135,-3.0202,-3.0213,-3.0169,-3.017,-3.017,0,-2.9576,-2.9607,-2.9662,-2.9688,-2.9713,-2.9754,-2.9782,-2.9812,-2.9841,-2.9891,-2.9915,-2.9961,-3.0,-3.007,-3.0103,-3.0147,-3.0153,-3.0174,-3.016,-3.0152,-3.0154,-3.0152,-3.0155,-3.0175,-3.0176,-3.0176,-3.0176,0,-2.9615,-2.9629,-2.967,-2.9716,-2.9749,-2.9787,-2.9824,-2.9844,-2.9881,-2.9912,-2.9959,-2.9989,-3.0048,-3.0093,-3.0141,-3.0166,-3.0177,-3.0181,-3.0188,-3.0182,-3.017,-3.0177,-3.012,-3.0179,-3.0178,-3.0178,-3.0178,-3.0178,-2.9638,-2.9667,-2.971,-2.9755,-2.9787,-2.9822,-2.9853,-2.9883,-2.9922,-2.9973,-2.9989,-3.0037,-3.0079,-3.0144,-3.017,-3.0208,-3.0206,-3.0217,-3.022,-3.0222,-3.0222,-3.0164,-3.0217,-3.0217,-3.0217,-3.0217,-3.0217,0,-2.9678,-2.9707,-2.9748,-2.9801,-2.9836,-2.9845,-2.9887,-2.9916,-2.9958,-2.9997,-3.0035,-3.0088,-3.0133,-3.0171,-3.0217,-3.024,-3.0247,-3.0251,-3.025,-3.0256,-3.0221,-3.021,-3.0245,-3.0245,-3.0245,-3.0245,-3.0245,-3.0245,-2.9703,-2.9752,-2.9773,-2.9838,-2.9867,-2.9916,-2.9939,-2.9972,-3.0003,-3.0062,-3.01,-3.0125,-3.0163,-3.0212,-3.0254,-3.0264,-3.028,-3.0283,-3.0294,-3.0261,-3.0258,-3.0255,-3.0245,-3.0286,-3.0287,-3.0326,-3.0326,-3.0326]}]]